sat.trackr.live / text

‹ back to catalog

STARLINK-37680

NORAD 69240 · 2026-117C

PAYLOAD ACTIVE UNKNOWN

§ Identity

Operator
Country
US
Launch date
2026-05-29
Launch site
AFETR
Launch vehicle
Mass (kg)
RCS (m²)

Purposes: comms

External: N2YO · Heavens-Above · Gunter

§ Orbital elements

Epoch: 2026-09-19T10:34:10.888320Z

Period
93.85 min
Inclination
53.1580°
Eccentricity
0.0000888
Mean motion
15.34403705 rev/d
Perigee alt
462.1 km
Apogee alt
463.3 km
Semi-major
6,840.8 km
B*
3.5914e-4
RAAN
158.7488°
Arg perigee
93.9546°
Mean anomaly
266.1558°
Rev number
1,750

§ Raw data

STARLINK-376801 69240U 26117C   26262.44040380  .00011779  00000+0  35914-3 0  99982 69240  53.1580 158.7488 0000888  93.9546 266.1558 15.34403705 17504

JSON: /api/v1/satellites/69240 · /tle

For live sub-satellite position, see the globe view (requires WebGL).

§ Visibility from observer

Set your observer location to see the next 7 days of passes ≥ 10°. The values pass through the URL so the page stays shareable.

No JS? Fill the form by hand. The geolocation button needs JavaScript.